Regional Weather Roundup
Issued by NWS

Home | Current Version | Previous Version | Text Only | Print | Product List | Glossary Off
Versions: 1 2 3 4 5 6 7 8 9 10 11 12 13 14 15 16 17 18 19 20 21 22 23 24 25 26 27 28 29 30 31 32 33 34 35 36 37 38 39 40 41 42 43 44 45 46 47 48 49 50

965
ASUS43 KBIS 291010
RWRND

NORTH DAKOTA REGIONAL WEATHER ROUNDUP
NATIONAL WEATHER SERVICE BISMARCK ND
500 AM CDT MON AUG 29 2016

NOTE: "FAIR" INDICATES FEW OR NO CLOUDS BELOW 12,000 FEET WITH NO
SIGNIFICANT WEATHER AND/OR OBSTRUCTIONS TO VISIBILITY.


NDZ001>003-009>011-017-291100-
NORTHWEST NORTH DAKOTA

CITY           SKY/WX    TMP DP  RH WIND       PRES   REMARKS
WILLISTON      PTCLDY    55  45  68 N13       30.24R
MINOT          CLEAR     57  50  77 NW10      30.18R
MINOT AFB      CLEAR     56  50  78 NW13      30.17R
$$

NDZ018>021-031>035-040>046-291100-
SOUTHWEST NORTH DAKOTA

CITY           SKY/WX    TMP DP  RH WIND       PRES   REMARKS
BISMARCK       CLOUDY    67  52  58 N7        30.13R
DICKINSON      CLOUDY    63  50  62 N10       30.18R
GARRISON         N/A     61  53  75 N9        30.17R
HETTINGER ARPT CLOUDY    66  52  60 NE15      30.18R
$$

NDZ004>008-012>016-024-026-027-054-291100-
NORTHEAST NORTH DAKOTA

CITY           SKY/WX    TMP DP  RH WIND       PRES   REMARKS
GRAND FORKS    CLOUDY    65  62  90 W7        30.03R
GRND FRKS AFB  MOCLDY    65  63  94 NW6       30.04R
DEVILS LAKE    CLEAR     63  60  90 NW10      30.10R
$$

NDZ022-023-025-028>030-036>039-047>053-291100-
SOUTHEAST NORTH DAKOTA

CITY           SKY/WX    TMP DP  RH WIND       PRES   REMARKS
FARGO          CLEAR     73  70  90 SE8       30.01R
JAMESTOWN      MOCLDY    65  65 100 N12       30.05R FOG
$$





USA.gov is the U.S. government's official web portal to all federal, state and local government web resources and services.